Wind_Speed
19 18 17 16 15 14 13 13 13 13 13 13 13 12 12 12 12 12 12 13 14 15 16 17 18 19 19 20 20 20 20 20 21 21 22 23 24 25 26 28 29 30 30 29 28 25 22 25 29 31 31 30 29 28 27 26 26 28 28 23 21 20 18 18 18 16 15 15 14 12 10 8 8 8 6 5 5 6 5 5 5 7 7 7 7 7 7 7
16 15 14 14 14 14 14 14 14 14 14 14 14 14 14 14 14 13 13 13 14 14 15 15 16 17 17 18 19 20 21 21 21 21 22 22 23 24 25 26 27 28 29 28 26 22 22 27 29 31 33 32 31 30 30 30 29 29 27 25 24 23 23 23 21 18 17 15 13 12 11 9 8 8 7 6 6 6 6 4 4 5 6 5 6 6 6 7
14 14 14 14 15 15 15 15 15 15 15 15 15 15 15 15 15 15 15 15 15 16 16 16 16 16 16 17 17 18 19 20 21 22 22 22 22 22 23 25 26 27 27 27 26 23 27 30 28 29 33 33 32 32 31 31 30 29 30 29 27 26 26 26 24 21 19 16 13 11 11 10 9 8 8 6 6 6 6 4 3 3 4 4 4 5 5 5
14 14 15 15 15 16 16 16 16 16 16 16 16 16 16 16 16 16 16 16 17 17 18 18 18 18 18 18 18 18 18 18 19 20 21 22 22 22 22 23 24 26 26 26 25 25 29 31 29 30 33 33 33 33 32 32 31 32 33 32 30 29 28 27 26 23 20 16 13 11 10 10 11 10 9 8 8 8 7 5 3 2 3 3 2 3 3 3
15 15 15 15 16 16 15 15 15 15 15 15 15 15 15 15 15 15 16 16 17 17 18 18 19 19 20 20 20 19 19 18 18 19 19 20 21 21 22 23 24 25 26 27 25 25 27 29 31 33 33 33 34 36 35 33 34 34 34 33 32 31 29 28 27 24 21 18 16 14 12 13 13 11 10 10 10 9 8 6 4 2 2 2 1 1 1 1
15 15 15 15 15 15 15 14 14 14 13 13 13 13 13 13 13 13 14 14 15 16 17 17 18 18 19 20 20 20 20 20 20 19 19 19 19 20 21 23 24 24 25 25 24 25 27 28 31 33 33 33 33 35 35 35 35 34 33 34 34 31 31 30 27 25 21 19 18 16 16 15 14 12 11 11 11 11 10 8 5 4 2 2 2 1 1 1
14 14 14 14 14 13 13 12 12 11 10 10 10 10 10 10 9 9 9 10 10 11 12 13 13 14 16 17 18 19 20 20 20 21 20 20 19 19 20 22 24 24 24 24 24 25 27 31 31 31 33 33 33 32 31 32 35 36 32 32 34 33 32 31 29 27 23 21 20 17 16 17 16 15 13 13 13 12 11 10 7 5 4 3 3 3 2 2
13 13 13 12 11 10 9 9 8 7 6 5 5 5 5 5 5 5 5 5 6 6 6 7 7 8 10 11 13 15 16 17 19 20 20 21 21 20 20 21 22 23 23 24 25 26 28 32 31 29 32 33 33 33 30 30 34 38 35 31 33 34 33 32 31 29 25 24 24 22 20 20 19 17 16 15 14 13 13 11 9 7 5 4 4 4 4 3
12 11 9 8 7 6 5 4 2 1 2 3 4 5 6 7 7 7 7 7 7 7 7 7 6 6 5 6 7 8 10 12 14 16 18 19 21 22 22 21 21 21 23 24 25 27 28 31 31 31 34 34 34 35 34 33 32 35 37 35 33 34 34 33 31 28 25 24 25 25 23 22 20 18 17 16 14 14 14 13 12 9 7 6 5 6 5 5
8 7 6 5 4 2 2 4 5 7 8 8 9 9 9 9 10 10 10 10 10 9 9 9 9 9 8 8 6 6 6 6 7 9 12 15 18 21 22 22 22 21 22 24 26 28 26 27 30 32 36 36 35 37 39 38 34 32 35 38 36 35 35 34 30 26 24 24 26 26 23 22 20 18 18 18 17 16 15 15 14 12 10 8 7 7 7 6
5 5 4 4 6 7 9 10 11 11 11 11 11 11 11 11 11 11 11 12 11 11 11 11 11 11 11 11 10 9 8 7 6 5 5 8 12 16 19 21 23 23 22 23 25 28 26 26 29 31 35 38 36 38 41 41 38 34 33 36 37 37 37 36 33 29 28 30 31 29 26 26 23 20 20 20 19 17 17 16 16 15 13 10 9 8 8 7
6 7 8 10 11 12 12 13 13 13 12 12 12 11 11 11 12 12 12 13 13 13 13 13 13 13 12 13 13 12 10 10 9 7 5 3 6 9 13 16 20 22 24 24 25 28 28 28 29 31 34 38 39 39 40 41 40 38 36 36 37 38 38 38 37 36 36 35 34 33 30 29 26 23 22 22 21 19 18 17 17 18 16 13 12 10 9 9
10 12 13 14 14 14 14 14 13 13 12 12 12 11 11 12 12 13 13 14 15 15 15 15 15 14 13 13 14 13 12 11 10 9 7 5 4 5 7 11 15 19 23 25 26 27 29 28 29 30 32 37 40 41 42 42 41 40 39 37 37 38 37 37 38 38 38 37 35 34 32 30 28 25 24 23 23 22 19 18 18 19 19 16 14 12 11 11
14 15 15 15 15 14 14 13 12 12 11 11 11 11 11 12 13 13 14 15 16 16 16 16 15 15 15 14 14 14 14 13 11 10 9 7 5 5 5 6 9 14 19 23 26 27 27 28 28 30 33 35 38 40 41 43 43 43 42 40 39 39 38 37 38 40 40 39 38 35 33 31 29 28 27 25 23 22 19 19 20 20 21 19 16 14 13 12
17 16 16 15 14 13 13 12 11 11 11 10 10 11 11 11 12 13 14 14 15 15 16 16 15 15 16 16 15 15 15 15 14 12 11 10 8 6 5 5 6 9 13 19 24 27 26 27 30 33 35 36 36 37 38 41 44 45 45 45 45 42 40 39 39 41 42 41 40 38 36 33 31 30 28 27 25 23 20 20 20 20 20 20 18 16 14 13
17 16 15 14 13 12 12 11 11 10 10 9 9 10 10 10 10 11 12 13 13 14 14 15 15 16 17 18 17 17 17 17 17 16 14 13 11 9 7 5 5 6 9 14 18 24 27 30 33 35 36 37 38 37 37 40 44 44 44 47 49 47 44 41 41 42 43 44 42 41 40 37 35 33 31 29 27 25 24 22 21 21 21 20 20 18 16 15
16 15 13 13 12 11 11 10 10 9 8 8 7 8 8 8 9 10 11 12 13 14 14 16 17 17 18 18 19 19 19 19 19 19 18 17 15 13 11 9 7 7 8 11 15 19 25 30 34 36 36 37 39 40 39 41 43 43 43 46 49 50 49 46 44 43 43 45 44 42 42 40 38 36 34 31 29 27 27 24 22 22 22 22 22 21 19 17
15 13 12 12 11 11 10 9 8 7 7 6 7 7 8 9 10 11 12 13 14 14 15 17 18 19 19 19 21 21 21 21 21 21 21 20 19 18 16 14 11 9 9 11 13 17 20 24 29 33 35 36 37 40 42 43 44 43 43 45 46 48 50 48 46 46 45 44 43 43 42 42 40 38 36 34 32 30 28 26 24 22 21 22 23 22 21 19
13 12 11 11 10 9 8 7 6 6 6 7 8 9 10 12 13 14 14 16 17 17 18 19 20 22 22 22 22 23 23 24 24 24 23 23 23 23 22 19 16 14 12 11 13 15 18 20 23 27 31 33 36 38 42 44 45 45 45 45 44 45 48 47 46 46 46 44 42 42 42 43 42 39 38 36 35 32 29 28 27 24 21 22 23 23 23 21
12 11 11 10 9 7 6 6 6 7 8 9 10 12 13 15 16 17 18 19 20 21 21 22 22 23 25 25 24 25 26 26 26 26 26 26 25 26 26 24 22 20 17 14 14 16 19 20 21 23 26 29 33 38 42 44 45 46 47 46 45 45 47 47 46 45 45 45 44 41 41 43 43 41 39 38 36 33 31 31 27 23 22 21 23 24 24 24
12 11 10 8 7 6 6 6 7 8 10 11 12 14 16 17 18 19 20 21 21 23 23 24 24 25 26 27 27 27 27 29 29 29 30 29 28 29 29 28 27 25 23 19 17 18 21 22 22 23 25 26 29 35 41 44 44 46 48 48 48 48 48 48 50 49 47 46 45 43 41 42 42 42 41 40 38 35 33 33 28 23 21 20 23 26 26 26
11 10 8 7 6 6 6 7 8 9 10 12 13 14 15 16 18 19 21 22 22 23 24 25 26 27 27 28 29 29 28 30 30 31 32 31 30 31 31 31 31 29 28 24 21 22 24 25 25 25 26 26 28 32 38 43 45 46 48 50 49 50 51 50 51 52 49 47 48 45 42 44 43 41 42 42 41 39 37 35 31 27 24 21 23 26 27 28
10 8 7 6 6 6 7 8 9 10 11 12 13 14 15 16 17 18 20 22 22 23 25 25 26 28 28 29 30 31 31 32 32 32 34 34 32 33 32 33 35 33 31 30 26 26 27 28 29 28 28 28 29 30 34 39 44 47 48 50 51 51 52 52 53 54 52 49 50 48 43 44 45 43 43 44 44 43 40 38 36 33 30 26 25 25 27 29
8 7 6 6 6 7 8 9 9 10 11 12 12 13 15 16 17 18 21 23 23 23 25 27 28 28 30 31 32 33 33 34 35 33 35 38 34 35 35 34 37 36 35 34 31 30 30 31 32 32 31 30 31 32 32 34 40 46 49 51 52 53 53 54 55 55 53 51 53 52 47 44 46 45 44 44 45 45 43 40 38 36 34 32 29 26 26 28
8 7 6 6 6 7 8 9 9 10 11 12 13 14 15 16 18 19 21 24 26 26 27 28 29 30 31 32 33 34 35 37 38 34 35 40 38 36 37 35 36 39 38 36 35 33 33 34 35 36 36 33 33 34 33 34 37 43 49 51 53 54 56 56 55 54 54 53 53 52 50 47 46 47 46 45 46 46 44 42 40 38 37 35 33 31 29 29
7 6 5 5 5 6 7 8 9 10 11 12 13 15 16 18 19 20 21 24 27 29 30 31 32 32 33 35 35 36 37 38 40 37 36 41 41 37 39 38 37 41 40 38 37 36 36 37 37 39 40 38 36 36 35 36 37 41 46 51 54 55 57 56 55 55 55 55 54 52 51 49 48 48 48 48 48 47 45 42 40 39 39 37 35 34 32 30
6 5 4 4 5 6 7 8 9 10 11 13 15 17 19 20 22 23 23 24 25 27 31 33 34 34 35 37 38 39 40 40 41 41 39 41 41 39 40 40 39 41 42 41 39 38 40 41 41 43 44 42 40 39 37 37 38 40 44 49 54 56 57 56 55 56 56 56 56 53 51 50 50 50 49 49 51 50 47 45 42 41 42 41 38 35 34 32
5 4 3 3 4 6 7 8 9 11 12 15 17 19 21 22 24 26 27 27 28 28 30 33 35 36 37 39 41 41 42 43 42 41 42 42 41 39 41 41 40 42 44 42 41 42 44 46 45 45 46 46 43 41 39 39 40 41 45 48 51 54 56 56 55 56 57 56 56 55 52 51 51 51 51 51 52 51 49 48 45 42 41 41 39 36 36 36
4 2 1 2 4 6 7 9 10 11 14 16 18 20 23 25 26 28 29 30 32 34 34 36 38 40 41 42 43 44 45 47 45 43 43 44 42 40 41 41 41 42 44 43 43 45 46 49 48 47 48 48 46 43 41 40 42 44 46 47 49 52 54 55 56 57 57 57 56 56 54 53 52 52 53 55 54 51 50 49 48 45 43 41 40 37 36 37
3 1 1 2 4 6 8 9 11 13 15 17 20 22 24 27 29 31 32 32 33 36 37 38 40 42 44 45 45 45 46 48 48 46 44 44 43 41 41 42 42 43 44 44 45 46 46 48 48 47 48 48 46 45 44 43 44 45 47 49 48 49 51 53 56 57 57 57 57 57 56 56 55 53 54 56 55 53 52 51 51 49 47 45 43 40 37 37
3 2 3 4 6 8 9 11 12 14 16 19 21 24 26 29 31 33 36 37 37 39 40 41 42 43 46 48 48 48 48 48 49 48 46 45 44 42 42 43 44 44 44 43 43 45 45 45 46 47 48 48 48 49 48 47 48 47 50 51 47 46 49 52 54 56 57 58 58 59 59 59 58 56 56 56 56 55 53 53 54 52 49 47 45 43 40 39
4 3 4 5 7 9 10 12 14 16 18 20 23 26 28 30 33 33 36 40 41 42 44 46 47 48 49 51 53 54 52 51 50 49 48 46 44 43 44 45 46 45 43 41 39 40 41 42 44 46 47 48 51 51 50 50 50 50 52 50 45 45 49 51 53 55 56 57 58 60 61 60 60 61 59 57 57 58 55 54 55 55 52 49 48 47 44 44
4 4 5 6 8 9 11 13 15 17 19 22 24 27 29 32 35 36 37 40 44 45 47 49 51 53 53 54 56 58 57 55 54 52 49 48 47 45 46 47 46 44 39 35 33 33 37 40 41 44 46 48 50 50 50 51 50 51 51 48 45 46 47 50 52 53 53 55 55 57 60 61 61 62 62 59 58 59 59 57 56 55 53 50 50 50 46 47
6 6 7 8 10 11 13 15 17 19 21 23 26 29 31 33 36 39 40 42 45 47 49 51 53 55 56 56 57 58 59 57 56 55 52 50 50 49 50 49 46 41 33 27 27 29 34 37 38 43 46 47 49 50 51 51 51 51 49 46 45 45 46 48 50 52 54 55 54 53 56 61 62 61 62 61 58 58 60 60 59 57 55 52 51 51 48 46
8 8 9 10 11 13 15 17 19 21 23 25 28 32 34 34 36 38 41 43 45 48 50 51 54 56 57 58 58 58 60 59 58 58 55 52 53 54 54 51 45 38 30 23 24 27 30 32 35 41 45 45 47 50 52 51 49 49 47 44 43 44 45 46 47 50 53 54 55 53 53 58 62 61 62 62 59 58 60 61 60 59 58 57 54 53 51 47
11 11 12 13 14 15 16 18 21 23 25 27 29 32 34 36 37 39 42 45 47 49 52 53 55 58 59 61 62 62 62 62 60 60 58 55 56 57 56 51 44 37 30 23 21 23 26 28 32 37 40 41 45 50 51 49 47 47 44 42 43 44 46 47 47 49 51 52 53 52 51 55 60 63 63 62 60 59 59 61 61 60 61 60 57 55 54 50
14 14 15 15 16 17 18 20 22 24 26 29 32 33 34 37 39 41 43 46 48 50 53 55 57 59 61 62 63 63 64 64 61 61 59 56 57 58 55 49 42 34 29 23 18 21 24 25 30 34 36 39 45 50 50 47 45 44 43 43 44 44 45 46 48 47 47 50 51 50 51 53 57 63 63 61 62 59 56 58 60 60 62 62 58 56 55 53
15 16 16 17 17 18 20 21 23 26 28 30 33 35 37 39 40 42 44 47 50 51 54 56 58 60 62 62 63 64 65 65 63 61 60 57 57 58 55 48 39 32 29 24 19 21 23 24 28 29 31 35 43 48 48 46 44 43 43 44 43 44 45 45 47 46 43 45 49 49 49 50 53 61 64 62 62 61 57 55 56 57 58 60 60 57 54 53
16 17 18 19 20 21 22 24 25 27 29 31 33 34 36 39 41 43 45 48 51 53 55 57 59 61 62 63 64 64 65 66 64 62 60 58 58 58 54 46 37 31 26 22 19 18 20 23 24 24 25 33 41 45 45 44 43 43 44 43 42 42 44 43 45 47 42 42 48 50 50 51 52 57 62 61 60 62 61 58 55 56 55 55 58 58 55 54
18 18 19 20 21 23 25 26 27 29 31 33 34 35 37 39 42 44 47 49 51 54 56 58 60 62 63 64 65 65 65 66 65 62 60 58 59 59 54 44 36 30 24 21 18 16 20 23 24 24 26 33 39 42 43 42 42 44 43 42 41 40 41 42 41 43 44 43 45 47 47 50 54 55 56 59 61 60 62 61 58 58 57 54 53 54 55 54
20 20 21 22 23 25 26 27 29 30 32 34 36 38 40 42 44 46 48 51 52 55 57 59 60 62 63 63 65 66 66 65 63 62 60 58 59 59 53 43 35 29 23 20 17 15 19 20 21 24 27 31 35 39 41 41 41 43 43 42 42 41 41 42 38 38 44 44 43 46 46 46 51 55 54 57 60 57 57 59 58 58 58 56 53 51 51 50
22 22 23 24 25 26 27 28 30 31 32 34 37 39 42 44 46 48 50 52 54 56 57 59 61 62 63 63 64 65 66 65 62 61 59 59 59 58 53 43 34 28 22 17 14 12 16 19 21 25 26 29 35 40 43 43 41 43 43 42 43 43 41 41 40 39 42 44 44 46 48 45 45 50 54 57 57 54 52 51 51 54 56 56 56 52 48 48
23 23 24 25 26 27 28 29 31 33 35 36 38 41 43 45 47 50 52 53 56 57 59 60 62 62 63 63 63 65 65 64 62 60 58 58 59 59 53 42 31 25 20 15 13 16 20 22 23 26 27 25 29 37 42 45 44 43 44 45 44 44 42 41 42 43 42 43 44 45 47 47 44 46 51 53 54 53 51 46 43 47 53 54 54 51 46 46
25 25 26 27 27 28 29 30 32 34 37 39 40 42 45 47 48 51 53 55 57 59 60 62 63 63 63 63 63 65 65 64 62 59 57 57 59 58 52 41 28 21 18 15 16 19 20 18 21 28 31 28 28 35 43 46 46 45 44 45 44 43 42 41 41 43 42 42 43 43 44 44 44 46 46 46 48 50 50 50 47 45 46 48 49 48 43 40
26 27 27 28 29 30 31 32 33 35 38 40 42 44 45 48 50 52 54 56 58 60 62 62 63 64 64 63 64 65 64 63 62 59 56 55 58 57 50 40 26 17 17 18 20 19 17 18 23 28 33 34 33 38 44 45 45 44 43 43 42 41 41 42 41 41 41 42 42 42 42 40 39 42 43 41 42 43 44 47 50 48 43 41 41 40 36 34
28 28 29 29 30 31 32 34 35 37 39 41 43 45 47 49 51 53 55 57 59 61 63 64 64 64 64 64 64 64 64 63 61 59 57 55 57 56 49 39 26 17 18 19 20 19 17 20 23 24 30 36 36 37 41 42 43 44 43 42 42 43 43 42 41 39 40 42 42 41 40 39 38 39 40 38 37 39 42 43 46 48 44 38 37 37 35 33
30 30 31 31 32 33 34 36 37 39 41 43 44 47 49 50 52 54 57 59 60 61 63 64 64 65 64 64 65 65 64 63 60 58 56 56 57 55 47 37 25 19 19 18 21 22 21 23 23 24 31 37 37 37 40 41 41 42 43 43 43 43 43 42 41 40 40 40 41 40 38 39 40 37 35 36 35 35 39 41 41 42 40 36 38 41 38 34
32 33 33 34 34 35 36 38 39 41 43 45 47 48 50 52 54 56 58 60 62 63 63 64 65 65 64 65 66 66 65 63 60 58 56 56 57 54 45 35 24 19 18 21 26 26 26 27 27 28 32 34 35 36 38 39 38 37 39 42 42 42 42 41 41 42 41 40 40 40 39 39 40 36 30 33 35 33 34 37 37 37 38 36 37 42 41 30
34 35 35 36 36 37 38 39 41 43 44 46 48 50 52 53 55 57 59 61 62 64 64 64 65 65 65 65 66 66 65 63 60 58 56 56 56 53 44 33 24 18 17 23 28 29 27 26 27 29 31 30 30 31 32 34 34 33 35 37 40 42 41 40 40 40 39 39 39 39 40 39 38 36 31 33 35 29 27 32 35 35 38 39 39 45 45 29
36 36 37 38 38 39 40 41 43 44 46 48 50 51 53 55 56 58 60 61 63 64 65 65 65 65 65 66 67 66 65 63 60 58 57 57 57 53 43 32 23 15 15 24 30 31 28 25 25 26 28 29 30 31 32 33 33 35 36 36 38 42 42 40 39 38 37 38 38 39 39 38 37 37 35 33 32 28 26 33 39 40 40 41 42 46 46 33
38 38 39 39 40 41 42 43 44 46 47 49 51 52 54 56 57 59 60 62 63 64 65 65 65 66 66 67 68 67 65 63 60 58 56 57 58 53 42 32 22 14 16 26 33 33 31 28 25 24 24 27 31 35 37 37 37 39 40 37 38 43 44 41 39 39 39 40 39 39 40 38 35 36 37 35 31 29 31 36 42 44 41 38 40 43 44 39
40 40 41 41 42 43 44 45 46 47 49 50 52 53 55 56 58 59 61 62 63 64 64 65 65 66 67 68 68 67 65 63 61 59 56 56 58 53 41 30 20 14 17 26 36 37 35 34 31 28 27 28 32 36 37 37 37 39 38 36 37 40 42 43 43 45 44 41 40 40 40 36 32 30 32 33 32 33 35 37 41 44 40 36 37 39 37 38
Wind_Direction
272 274 274 275 277 278 280 281 282 283 283 282 281 280 278 277 274 273 270 269 267 265 263 262 261 260 258 256 255 254 253 252 250 247 243 241 238 236 234 233 233 232 231 229 227 225 229 232 233 233 229 226 224 222 221 218 219 228 236 237 234 237 235 232 234 233 237 247 252 249 251 260 266 264 263 281 292 289 303 342 12 10 6 7 13 24 28 31
269 270 271 274 275 277 279 280 281 282 281 281 280 279 278 277 275 273 271 269 268 266 265 263 262 260 258 257 254 253 251 250 250 248 245 242 239 237 234 232 231 231 230 228 225 218 224 233 233 233 230 227 225 222 222 220 221 227 233 234 233 236 237 235 236 236 241 249 248 243 245 251 261 259 256 272 284 279 286 315 4 12 5 5 10 24 34 29
266 269 272 274 276 278 280 281 281 282 281 281 280 280 278 276 274 273 271 269 267 266 264 263 262 261 259 257 255 253 251 250 249 248 246 244 241 238 236 233 230 229 228 225 221 213 219 230 233 233 231 228 227 225 224 222 223 228 232 232 232 234 236 236 237 239 243 246 248 245 242 243 251 254 252 260 269 269 274 288 332 6 1 4 10 20 36 30
268 271 274 275 277 278 279 280 281 282 282 282 281 280 278 277 275 273 271 269 267 265 264 263 262 261 260 258 256 254 252 250 249 248 246 244 242 239 236 234 230 226 224 220 216 214 219 227 232 233 230 227 227 226 225 223 224 228 230 231 232 233 236 237 239 241 240 240 245 247 246 245 245 249 249 246 251 263 264 266 288 337 350 353 5 13 31 37
270 272 274 275 277 279 280 281 282 283 282 282 281 280 279 277 275 274 272 269 267 266 264 263 262 262 261 260 258 256 254 252 251 250 248 246 242 240 237 234 230 225 222 216 212 216 218 222 228 230 228 226 225 226 225 224 225 228 229 230 232 234 236 239 241 240 236 240 247 249 252 252 247 246 246 244 247 255 255 255 266 282 325 326 321 355 18 61
270 272 274 276 278 281 283 283 283 283 282 282 281 280 278 277 276 275 273 272 271 269 268 266 265 264 263 263 261 259 257 254 253 252 250 248 244 240 237 234 231 224 220 214 210 216 217 220 226 227 227 226 225 224 225 226 226 229 231 230 232 235 236 236 238 237 236 242 246 244 250 254 249 243 242 243 244 246 247 246 249 255 278 291 268 243 237 176
270 273 276 278 281 282 282 281 280 279 280 280 280 281 282 285 287 289 287 287 287 284 281 279 276 274 271 269 266 264 261 258 255 253 251 249 246 242 238 236 232 226 219 211 209 215 217 219 224 226 227 226 224 222 223 225 226 228 231 230 230 232 233 233 235 237 238 240 240 240 247 250 247 243 240 242 242 241 243 242 238 243 252 266 262 235 221 215
273 276 278 279 279 277 275 274 276 279 282 286 294 303 315 330 339 346 346 343 340 331 324 317 308 297 288 282 277 274 268 263 259 255 253 250 247 243 240 237 234 228 219 209 208 214 218 220 222 226 227 227 224 222 223 224 224 226 230 229 226 228 232 233 234 237 238 239 239 236 236 239 241 242 241 241 241 238 239 239 235 235 237 246 259 244 222 219
274 275 273 269 263 261 262 267 278 326 40 52 54 52 51 50 50 49 45 42 37 31 23 16 10 358 339 323 307 294 282 274 268 262 257 253 249 245 241 239 236 231 221 211 210 213 219 223 223 225 226 226 224 221 222 223 222 224 227 228 225 226 231 233 234 236 235 236 234 230 229 234 239 243 244 240 238 237 237 237 235 230 229 232 246 249 229 218
267 260 249 238 226 199 140 109 99 93 88 85 81 77 73 70 67 63 60 56 51 46 39 34 30 24 18 15 9 347 330 313 293 277 267 258 254 249 244 240 236 233 225 214 210 212 220 226 224 225 225 223 223 221 220 221 221 221 225 228 228 229 231 230 231 228 223 223 223 225 230 235 237 239 242 240 237 238 237 236 235 231 227 227 234 245 240 223
235 212 187 159 135 120 112 107 101 97 93 89 84 80 75 69 66 62 58 55 51 46 40 37 34 30 24 22 26 20 11 6 354 334 299 273 262 254 247 244 238 234 228 217 213 215 221 226 224 224 223 222 222 222 222 221 222 222 223 226 227 230 231 228 227 224 220 221 225 229 233 235 233 230 234 236 236 236 237 236 235 232 229 226 227 236 242 233
172 152 138 128 122 116 110 105 99 95 90 84 77 71 65 59 56 52 50 46 43 40 34 30 27 26 24 18 20 23 22 19 14 15 9 330 285 265 252 246 240 235 230 221 217 217 220 224 225 225 224 222 222 224 224 222 223 223 222 223 224 228 230 228 229 229 228 227 230 234 234 234 232 230 232 233 232 231 234 236 233 233 231 229 227 229 237 240
141 134 128 123 118 112 107 101 95 89 82 75 67 59 52 46 42 40 39 37 34 32 28 23 18 16 18 15 11 12 15 18 15 13 17 16 342 298 269 253 243 237 231 225 221 220 222 224 225 226 225 222 222 224 224 221 224 225 223 222 222 225 228 227 228 229 229 230 233 235 234 234 233 233 234 234 231 228 231 236 235 233 231 229 227 226 231 238
134 130 125 120 115 110 103 98 91 84 77 69 62 54 47 41 36 34 32 31 28 25 22 18 11 8 10 10 8 5 4 6 6 3 1 5 1 335 306 278 255 242 232 227 223 221 227 231 230 228 225 223 222 225 225 222 224 226 224 222 221 224 226 227 229 230 229 230 234 235 232 232 232 231 232 233 231 226 226 233 235 231 229 229 227 226 227 233
131 126 122 117 113 108 103 98 92 85 77 70 63 55 50 43 37 33 29 26 22 19 15 10 4 1 1 360 1 2 357 355 355 353 351 349 349 342 322 300 278 259 242 233 225 221 227 234 236 233 227 224 223 224 226 224 224 225 224 222 222 226 228 227 230 232 230 230 232 231 229 230 229 229 229 229 229 226 222 224 229 227 225 227 228 227 227 229
128 125 122 118 115 111 108 104 98 92 84 76 68 59 50 42 35 28 23 18 14 10 5 360 355 354 355 350 349 353 351 347 345 343 343 340 338 334 322 304 283 269 252 243 236 230 231 234 238 238 230 225 224 222 223 224 224 224 225 223 223 226 227 225 228 232 231 230 230 230 230 229 227 228 227 228 230 226 219 219 226 226 225 229 231 230 228 228
129 127 125 123 121 118 114 110 105 98 89 78 66 53 40 30 24 18 12 8 5 1 355 352 348 346 348 344 341 345 344 340 338 336 334 332 330 327 319 308 287 269 256 249 244 240 238 238 239 240 234 227 225 222 221 224 222 222 224 223 222 224 226 227 228 231 231 230 231 231 231 229 227 226 225 226 228 223 219 224 231 232 230 231 232 232 230 229
132 131 128 127 124 121 117 110 103 93 79 63 47 33 23 16 12 9 5 1 357 355 351 349 345 340 341 341 338 338 337 334 332 330 328 326 324 322 315 309 299 281 262 252 250 247 244 243 242 241 236 230 226 222 222 224 221 220 222 221 221 222 225 227 227 229 231 230 231 230 230 230 227 224 223 223 225 222 220 226 233 232 230 230 231 233 231 229
135 133 130 128 125 120 112 100 87 70 55 40 29 21 14 8 6 4 1 359 354 350 350 348 343 337 337 339 336 334 332 330 329 326 324 322 320 317 312 309 306 295 276 260 256 256 252 249 247 245 239 233 228 224 225 226 222 220 221 220 221 221 221 224 225 226 228 227 228 227 227 228 227 224 222 220 221 222 219 222 230 230 229 230 232 233 231 229
136 134 131 127 120 111 97 81 66 52 40 29 21 14 10 4 1 358 356 356 351 347 347 345 340 336 335 336 333 331 329 326 325 323 320 318 317 313 309 308 306 299 287 273 264 262 259 254 251 250 245 238 231 226 226 228 225 223 221 221 222 220 219 222 224 224 224 223 224 225 225 226 226 223 221 219 219 219 216 217 226 231 228 231 233 234 234 230
137 133 128 121 110 97 82 66 53 44 32 23 17 11 6 1 356 353 350 351 348 344 344 341 338 336 334 332 330 329 327 323 321 320 316 315 314 310 308 307 304 297 291 284 274 267 262 258 254 250 248 242 235 230 227 228 227 225 222 222 222 220 219 220 222 222 221 220 221 224 224 221 221 221 221 220 218 216 213 213 220 228 225 229 233 232 233 232
136 129 122 113 101 86 69 55 45 37 27 20 14 8 3 358 354 349 345 347 346 342 341 339 336 335 333 330 328 327 325 321 319 318 313 312 311 308 306 304 299 295 293 289 279 269 264 261 257 251 246 243 238 235 231 229 229 227 224 223 221 220 220 220 221 222 222 219 218 220 220 216 215 218 220 221 218 216 214 212 217 223 221 222 229 230 233 235
133 127 121 109 92 74 58 47 37 30 23 15 10 5 0 356 353 349 344 343 344 342 338 337 335 334 332 330 327 325 324 319 316 316 312 310 309 305 303 299 296 295 292 287 279 271 267 263 260 255 250 245 240 237 235 233 230 229 227 225 222 221 221 221 220 221 222 220 216 217 217 214 213 216 220 220 219 218 217 216 217 221 224 225 227 229 231 234
135 129 119 100 80 64 49 37 29 23 17 11 5 2 358 354 352 350 345 339 342 343 337 336 336 333 331 329 327 325 323 318 315 317 313 308 306 303 300 298 295 293 288 284 280 273 268 264 262 259 253 247 243 239 236 235 232 230 229 226 224 222 222 221 220 220 222 221 217 217 219 216 213 215 218 218 219 220 218 217 216 219 224 225 225 226 226 230
141 128 110 89 69 54 40 28 21 16 11 5 360 358 354 351 348 349 346 339 339 341 336 335 335 333 331 329 327 325 323 319 315 317 314 306 305 303 300 297 293 289 286 283 279 274 268 264 262 261 257 250 245 241 236 234 233 230 229 228 225 223 223 222 220 220 221 221 219 218 220 219 215 215 218 218 218 220 219 218 217 217 220 221 223 227 229 228
140 122 104 84 62 44 31 20 13 9 4 358 354 352 348 346 344 343 345 341 338 340 337 335 334 333 332 329 327 326 324 320 317 318 315 307 306 305 300 296 291 288 285 282 277 274 269 264 260 259 257 252 246 242 237 233 232 230 228 228 226 224 223 223 221 221 220 220 220 218 218 219 217 216 218 219 218 219 218 216 214 215 218 220 225 231 230 228
138 121 101 77 49 31 20 10 5 0 356 351 349 347 343 343 341 339 341 339 337 338 335 333 333 332 332 330 328 327 325 322 320 320 316 309 307 306 301 296 292 288 285 281 278 274 268 263 258 255 255 252 247 243 238 233 231 230 229 227 226 225 224 222 221 221 220 220 220 219 218 219 218 217 217 219 219 218 217 215 214 218 220 222 226 229 227 227
141 126 97 59 31 17 8 359 355 351 347 345 344 343 341 340 339 337 338 337 335 336 335 333 332 332 332 331 329 329 326 323 322 321 317 311 309 306 301 296 292 287 284 282 277 271 265 262 257 253 252 251 247 243 239 234 229 229 230 228 225 225 225 223 221 220 219 220 220 219 219 218 218 217 216 218 220 217 215 216 216 218 220 220 223 224 225 229
152 139 87 30 7 358 352 346 343 341 339 339 339 339 338 337 337 336 336 338 336 336 336 335 333 333 333 332 331 330 328 325 324 322 319 315 311 308 302 297 293 288 285 281 275 268 262 260 257 252 248 247 245 241 237 232 229 228 230 230 226 225 225 224 223 222 220 220 219 218 218 217 217 217 216 216 218 216 214 215 215 217 220 222 224 225 227 229
183 203 289 327 331 333 334 331 330 331 332 333 335 336 336 336 336 336 334 336 336 335 335 335 335 334 333 332 332 331 330 327 325 323 321 317 314 310 305 300 296 292 288 282 274 266 259 256 253 249 244 242 241 238 234 230 227 227 229 229 225 224 224 223 223 223 221 220 219 218 218 218 216 217 217 214 215 216 215 216 217 220 223 226 227 226 224 227
217 246 284 304 312 316 320 320 321 324 326 329 332 333 335 335 335 337 335 335 336 335 335 334 334 334 333 332 331 331 331 329 327 325 323 320 317 314 309 305 302 298 292 284 274 265 257 250 245 242 238 236 234 232 229 226 223 224 227 227 223 222 222 221 221 221 221 220 219 218 218 218 217 218 219 216 214 215 215 217 219 221 225 226 227 226 222 223
227 253 282 299 308 312 314 315 316 320 323 327 330 331 334 335 334 336 336 334 334 336 336 335 334 335 335 334 333 333 332 332 330 328 326 324 321 318 314 311 309 305 297 286 274 264 255 245 238 236 234 231 231 230 227 224 221 222 225 224 221 221 221 220 220 220 220 220 220 219 218 217 216 217 220 219 215 214 215 216 218 220 224 226 225 225 225 226
236 259 279 295 305 311 313 314 315 318 322 325 328 330 333 334 332 333 335 335 334 335 336 336 335 335 336 336 335 334 333 334 332 330 330 328 325 322 319 318 316 310 301 290 277 262 250 240 233 231 229 227 227 227 226 224 221 221 224 222 220 221 221 220 220 219 218 218 219 220 220 219 217 216 219 219 215 213 214 217 218 218 222 224 222 222 226 230
251 267 280 292 301 306 309 311 314 317 321 325 327 329 331 333 333 334 335 335 335 335 336 337 336 335 336 336 336 335 333 334 334 332 332 332 329 326 325 324 321 314 306 293 273 257 245 237 228 226 226 223 222 223 223 222 221 221 222 221 220 221 221 219 220 220 219 218 217 219 221 220 219 217 218 220 216 213 215 217 218 219 221 222 220 219 221 226
262 273 281 289 297 302 307 310 312 316 320 323 326 329 330 331 332 333 334 334 335 335 336 337 336 335 336 335 335 336 335 335 337 334 334 336 333 330 330 329 325 319 311 293 270 256 245 234 225 223 223 220 219 221 221 219 219 221 219 219 220 222 221 218 218 219 220 219 216 217 221 220 219 219 219 220 219 215 215 217 217 219 222 222 221 220 222 223
266 274 280 287 295 300 306 310 312 315 319 320 324 328 328 328 330 333 334 334 335 336 336 336 337 336 336 337 336 337 337 337 338 336 336 338 335 334 335 331 327 323 313 298 276 260 245 231 223 222 220 215 215 219 220 217 218 220 218 216 218 221 220 218 217 219 219 219 217 217 221 221 220 220 219 220 220 217 216 217 217 218 222 224 225 225 225 226
268 274 281 286 292 299 305 310 312 315 318 320 323 325 326 328 331 333 334 334 334 336 336 336 337 337 337 338 338 338 338 337 338 337 337 339 337 337 337 332 327 322 310 299 278 255 242 229 221 220 217 209 210 216 217 213 215 219 217 215 217 219 220 219 218 218 218 219 217 216 220 221 221 221 219 219 220 217 216 218 218 218 221 224 226 227 227 227
270 277 282 286 292 298 304 308 312 315 318 321 323 325 327 330 331 332 333 334 334 335 336 336 337 338 338 338 338 339 338 337 338 338 337 338 338 338 338 333 327 318 306 297 274 250 238 227 219 218 215 207 208 214 213 209 210 216 218 217 216 218 220 219 218 217 217 218 217 217 219 220 220 221 219 218 219 218 216 217 217 218 220 224 226 228 228 228
273 279 284 288 292 297 302 306 310 314 317 319 321 323 327 328 329 330 332 334 334 335 336 337 337 338 338 338 338 339 339 338 339 339 338 338 338 338 338 333 325 317 305 292 277 255 236 225 217 213 209 204 207 212 211 206 207 212 216 217 217 220 221 221 220 218 217 218 218 219 220 220 221 222 220 219 219 219 218 218 218 218 219 223 226 228 227 227
274 280 285 289 293 297 301 306 310 314 317 319 320 322 325 326 328 330 332 333 334 335 336 337 337 338 338 338 338 338 339 339 339 338 338 338 338 338 338 333 324 317 302 285 273 248 227 218 208 205 204 201 206 211 207 203 205 209 213 216 216 219 221 222 222 222 221 220 219 220 222 223 224 223 221 220 220 220 221 220 220 221 221 221 225 229 229 228
275 281 287 290 294 298 302 306 311 315 317 318 321 323 325 327 328 331 332 333 334 335 336 337 337 337 337 338 338 338 339 339 338 338 338 338 338 338 338 333 323 314 302 286 270 245 231 223 206 201 201 200 205 208 202 199 204 207 210 213 214 216 218 217 219 223 224 222 221 220 220 223 225 224 222 222 221 220 222 222 222 222 223 223 223 226 230 231
277 282 287 291 295 300 304 308 311 314 315 317 320 323 325 327 328 330 332 333 333 334 335 336 336 337 337 338 338 338 338 338 338 338 338 338 339 338 337 333 321 310 302 284 261 232 218 215 203 196 196 198 204 205 198 195 201 206 208 211 213 215 216 214 215 219 223 224 222 220 219 221 225 225 225 224 221 220 220 221 222 222 223 225 225 226 229 232
279 284 288 292 296 301 305 310 312 314 316 319 321 323 324 326 329 330 331 332 332 333 334 335 336 336 337 337 338 338 338 338 338 339 339 339 339 338 338 334 320 305 294 272 241 222 215 209 196 190 194 199 205 205 198 195 198 203 206 208 211 214 214 213 214 217 220 223 223 222 220 221 223 225 226 226 225 222 220 219 219 221 223 225 225 225 230 235
279 284 288 293 297 302 306 310 312 314 317 319 321 322 325 327 329 330 331 331 332 332 334 335 335 335 336 337 338 338 338 338 338 338 339 339 339 339 337 332 321 301 281 254 229 223 224 213 191 186 190 195 201 204 200 197 197 201 205 207 210 213 213 214 216 218 219 222 224 223 222 221 224 226 226 226 226 225 224 222 220 219 220 222 223 222 226 238
279 284 288 293 297 302 305 308 310 313 316 318 320 322 324 326 328 329 330 330 331 332 333 334 334 335 336 336 337 338 338 339 339 338 338 340 340 339 336 330 321 296 265 243 224 217 214 201 191 190 191 192 196 201 200 198 197 199 204 207 209 211 213 214 216 218 220 221 222 223 222 220 224 229 227 226 226 225 224 225 223 220 219 218 217 214 214 229
280 284 289 293 297 301 304 306 309 312 315 317 319 321 323 325 327 328 329 329 331 332 332 333 334 334 335 336 337 338 339 339 339 338 338 340 341 339 335 330 321 292 261 236 215 209 202 191 188 189 192 194 197 200 199 198 197 198 201 205 208 210 212 212 214 216 219 222 222 223 222 219 220 226 226 225 227 225 223 225 223 222 221 218 214 207 204 225
280 285 289 293 297 300 303 306 309 312 314 316 318 320 322 324 326 327 328 329 330 331 332 332 333 334 335 336 337 338 339 339 339 338 338 340 341 340 335 329 317 288 260 227 201 194 189 184 186 192 195 195 196 198 196 196 199 201 201 203 206 210 211 211 212 214 216 220 221 221 222 221 220 223 224 223 226 225 223 223 222 219 218 216 214 208 208 232
281 285 289 292 296 299 303 306 309 311 313 315 317 320 322 324 325 326 327 328 329 330 331 332 332 333 334 335 337 338 339 339 338 338 339 340 341 340 335 327 313 284 253 218 195 185 180 182 189 197 201 198 195 196 195 193 197 203 206 207 208 210 212 212 213 215 217 219 220 219 219 220 219 219 216 217 222 224 222 221 219 216 212 210 208 204 207 226
281 285 288 292 296 300 303 306 308 310 312 315 317 319 321 323 325 326 327 328 329 329 330 331 332 333 334 335 337 338 339 339 338 338 339 339 341 340 335 328 313 286 247 211 191 179 177 184 187 191 197 197 192 193 193 191 195 202 207 211 213 213 213 214 215 218 220 221 222 221 221 221 220 216 212 210 213 216 219 216 211 209 209 207 202 202 208 219
280 284 288 292 296 299 302 304 306 309 311 314 316 318 320 322 324 325 326 327 328 329 329 330 331 332 334 335 336 338 338 339 338 339 339 339 341 340 335 328 315 285 232 200 186 179 178 183 184 181 184 188 189 190 188 190 198 203 204 209 214 213 211 212 214 218 220 222 223 223 222 222 219 215 213 210 206 206 213 213 208 207 209 210 207 207 213 217
280 284 288 291 295 298 300 303 305 308 310 312 315 317 319 321 323 324 325 326 327 328 329 330 331 332 334 335 336 337 338 339 338 338 339 340 340 340 335 328 315 280 220 192 183 182 181 183 185 181 177 183 189 191 191 193 198 201 203 207 213 213 210 208 209 213 217 219 221 221 222 221 219 218 217 214 206 204 212 213 208 207 209 212 214 217 223 224
280 283 287 290 293 296 299 301 304 307 309 311 314 316 319 320 322 323 324 325 326 328 329 330 331 332 333 335 336 337 338 339 338 338 339 340 340 339 335 327 313 276 229 196 185 185 184 183 187 190 189 188 187 190 196 198 197 198 204 211 215 215 213 208 208 210 211 214 216 218 221 220 216 221 224 218 209 210 215 214 208 207 210 214 218 220 227 229
Height
10958 10958 10957 10957 10956 10956 10955 10955 10955 10954 10954 10954 10954 10953 10953 10953 10953 10953 10953 10953 10953 10953 10954 10954 10954 10955 10955 10956 10957 10957 10958 10959 10960 10961 10962 10964 10965 10967 10970 10972 10974 10977 10979 10983 10988 10992 10995 10994 10993 10994 10995 10997 10998 11000 11002 11003 11002 10998 10996 11001 11004 11006 11008 11008 11008 11009 11009 11010 11011 11013 11014 11014 11014 11015 11015 11015 11016 11016 11016 11016 11015 11015 11015 11014 11013 11012 11011 11010
10957 10956 10956 10955 10955 10955 10954 10954 10953 10953 10953 10952 10952 10952 10952 10952 10952 10952 10952 10952 10952 10952 10952 10952 10952 10953 10953 10954 10955 10955 10956 10957 10957 10958 10960 10961 10963 10965 10967 10969 10972 10974 10977 10981 10986 10992 10993 10987 10988 10990 10991 10994 10996 10998 10999 10999 10999 10997 10998 11000 11002 11004 11005 11005 11006 11008 11008 11009 11010 11011 11012 11013 11014 11014 11015 11015 11015 11016 11016 11016 11016 11016 11016 11015 11015 11013 11012 11011
10956 10955 10955 10954 10954 10953 10953 10952 10952 10952 10951 10951 10951 10950 10950 10950 10950 10950 10950 10950 10950 10950 10950 10951 10951 10951 10952 10952 10953 10953 10954 10955 10955 10956 10958 10959 10961 10963 10965 10967 10969 10972 10975 10979 10982 10988 10987 10981 10983 10986 10987 10991 10994 10995 10996 10997 10999 10998 10997 10998 11000 11002 11002 11003 11005 11006 11007 11008 11009 11010 11011 11012 11013 11014 11014 11015 11015 11015 11015 11015 11016 11016 11016 11016 11015 11014 11013 11013
10954 10954 10953 10953 10952 10952 10951 10951 10951 10950 10950 10949 10949 10949 10949 10949 10949 10949 10949 10949 10949 10949 10949 10949 10949 10949 10950 10950 10951 10951 10952 10953 10953 10954 10956 10957 10959 10961 10962 10964 10966 10969 10972 10975 10979 10982 10981 10979 10980 10980 10983 10988 10990 10991 10993 10995 10995 10993 10993 10996 10997 10999 11000 11001 11003 11005 11006 11007 11008 11009 11010 11011 11012 11013 11014 11014 11015 11015 11016 11015 11016 11016 11016 11016 11016 11015 11014 11014
10953 10952 10952 10951 10951 10950 10950 10949 10949 10949 10948 10948 10947 10947 10947 10947 10947 10947 10947 10947 10947 10947 10947 10947 10947 10947 10948 10948 10949 10949 10950 10951 10952 10953 10954 10955 10957 10958 10960 10961 10962 10966 10968 10972 10976 10978 10977 10975 10974 10975 10979 10982 10985 10986 10988 10991 10990 10988 10990 10993 10995 10996 10998 10999 11001 11003 11004 11005 11006 11008 11009 11010 11011 11013 11013 11014 11015 11015 11016 11016 11016 11016 11016 11016 11016 11016 11016 11015
10951 10951 10950 10950 10949 10949 10948 10948 10948 10947 10947 10946 10946 10945 10945 10945 10945 10945 10945 10945 10945 10945 10945 10945 10946 10946 10946 10946 10947 10947 10948 10950 10950 10951 10952 10953 10955 10956 10957 10958 10959 10962 10966 10970 10973 10974 10972 10969 10967 10972 10976 10978 10980 10982 10985 10986 10986 10986 10989 10991 10992 10994 10996 10997 10999 11001 11002 11003 11005 11007 11008 11009 11010 11011 11012 11013 11014 11015 11015 11015 11016 11016 11016 11016 11016 11017 11017 11016
10950 10949 10949 10948 10948 10948 10947 10947 10946 10946 10946 10945 10945 10944 10944 10944 10944 10944 10944 10944 10944 10943 10944 10944 10944 10944 10944 10944 10945 10945 10946 10947 10948 10949 10950 10952 10953 10954 10954 10955 10956 10960 10963 10967 10970 10970 10968 10962 10963 10969 10972 10975 10976 10979 10981 10983 10984 10984 10985 10988 10990 10991 10993 10995 10997 10999 11001 11002 11003 11006 11007 11008 11009 11010 11011 11012 11013 11014 11015 11015 11015 11016 11016 11016 11016 11017 11017 11017
10948 10948 10948 10947 10947 10946 10946 10945 10945 10945 10945 10945 10944 10944 10944 10944 10944 10943 10943 10943 10943 10943 10943 10943 10943 10943 10943 10943 10943 10943 10944 10945 10946 10947 10948 10949 10950 10951 10952 10953 10954 10957 10961 10964 10965 10966 10964 10961 10962 10965 10969 10972 10973 10975 10978 10979 10981 10981 10982 10985 10986 10988 10990 10992 10994 10997 11000 11002 11002 11004 11005 11005 11006 11008 11010 11011 11012 11013 11014 11015 11015 11015 11016 11016 11016 11017 11017 11017
10947 10947 10946 10946 10946 10945 10945 10945 10945 10945 10945 10945 10944 10944 10944 10944 10944 10944 10943 10943 10943 10943 10943 10942 10942 10942 10942 10942 10942 10942 10942 10943 10944 10945 10946 10947 10947 10948 10950 10951 10952 10955 10958 10961 10962 10963 10962 10961 10962 10963 10966 10969 10970 10972 10974 10975 10978 10978 10979 10981 10983 10986 10987 10989 10991 10995 10998 11001 11000 11000 11001 11003 11004 11007 11008 11009 11010 11011 11013 11014 11014 11015 11015 11016 11016 11017 11017 11017
10946 10946 10945 10945 10945 10945 10945 10945 10945 10945 10945 10945 10945 10945 10945 10945 10944 10944 10944 10944 10944 10943 10943 10943 10943 10942 10942 10942 10942 10942 10942 10942 10943 10944 10944 10944 10945 10946 10947 10949 10950 10952 10955 10957 10959 10960 10960 10960 10960 10961 10963 10965 10968 10970 10970 10972 10975 10976 10976 10978 10981 10983 10984 10986 10989 10992 10995 10996 10994 10995 10999 11001 11004 11005 11006 11007 11009 11010 11011 11013 11014 11014 11015 11015 11016 11017 11017 11017
10945 10945 10945 10945 10945 10945 10946 10946 10946 10946 10946 10946 10946 10946 10946 10946 10945 10945 10945 10945 10945 10944 10944 10944 10943 10943 10942 10942 10942 10942 10942 10942 10942 10943 10943 10943 10943 10943 10945 10946 10948 10950 10952 10954 10956 10956 10957 10957 10957 10958 10960 10963 10966 10967 10967 10969 10972 10973 10973 10975 10978 10980 10982 10984 10986 10989 10991 10990 10989 10993 10997 10999 11001 11003 11003 11005 11007 11009 11010 11011 11012 11013 11014 11014 11015 11016 11017 11017
10945 10945 10945 10945 10946 10946 10946 10947 10947 10947 10947 10947 10947 10947 10947 10946 10946 10946 10946 10946 10945 10945 10945 10944 10944 10943 10943 10942 10942 10942 10942 10942 10942 10942 10942 10942 10941 10941 10942 10944 10945 10946 10948 10951 10953 10952 10953 10954 10954 10955 10957 10960 10962 10963 10965 10966 10967 10969 10971 10972 10975 10976 10979 10981 10983 10985 10986 10987 10988 10991 10994 10996 10999 11001 11002 11003 11005 11006 11008 11009 11011 11012 11013 11013 11014 11015 11016 11017
10945 10945 10946 10946 10947 10947 10947 10948 10948 10948 10948 10948 10948 10948 10947 10947 10947 10947 10946 10946 10946 10945 10945 10944 10944 10943 10943 10943 10942 10942 10942 10942 10942 10942 10942 10942 10941 10940 10941 10941 10942 10943 10945 10948 10949 10950 10950 10950 10951 10952 10954 10956 10958 10958 10960 10963 10963 10965 10967 10969 10972 10973 10975 10977 10980 10981 10982 10984 10986 10989 10992 10995 10997 10999 11001 11002 11003 11004 11006 11007 11009 11010 11011 11012 11013 11014 11015 11016
10946 10946 10947 10947 10948 10948 10949 10949 10949 10949 10949 10948 10948 10948 10948 10947 10947 10947 10946 10946 10946 10945 10945 10944 10943 10943 10942 10942 10942 10941 10941 10941 10941 10941 10941 10941 10941 10940 10940 10940 10940 10940 10942 10944 10946 10947 10947 10946 10947 10948 10950 10952 10954 10955 10957 10959 10959 10960 10962 10964 10968 10970 10972 10974 10976 10977 10979 10982 10984 10987 10990 10992 10995 10996 10998 11000 11001 11002 11004 11005 11007 11008 11009 11011 11012 11013 11013 11015
10947 10947 10948 10948 10949 10949 10949 10949 10949 10949 10949 10949 10949 10948 10948 10948 10947 10947 10946 10946 10945 10945 10944 10944 10943 10942 10942 10941 10941 10941 10940 10940 10940 10940 10940 10940 10940 10940 10939 10939 10939 10939 10940 10941 10941 10943 10943 10942 10943 10944 10946 10949 10950 10952 10955 10955 10953 10954 10956 10959 10963 10965 10967 10970 10972 10974 10977 10979 10981 10983 10987 10989 10992 10994 10996 10997 10999 11000 11002 11004 11004 11005 11007 11009 11010 11011 11012 11013
10948 10948 10949 10949 10949 10949 10949 10950 10950 10949 10949 10949 10949 10949 10948 10948 10947 10947 10946 10946 10945 10944 10944 10943 10942 10942 10941 10940 10940 10940 10940 10939 10939 10938 10938 10938 10938 10938 10938 10938 10938 10938 10938 10938 10938 10939 10939 10939 10939 10940 10943 10946 10946 10949 10950 10949 10949 10951 10953 10956 10959 10961 10963 10965 10968 10970 10972 10975 10977 10980 10983 10986 10989 10991 10993 10995 10996 10999 11000 11002 11002 11003 11004 11006 11008 11009 11010 11011
10948 10949 10949 10949 10949 10950 10950 10950 10950 10950 10950 10949 10949 10949 10948 10948 10947 10947 10946 10945 10945 10944 10943 10942 10941 10941 10940 10939 10939 10938 10938 10937 10937 10937 10936 10936 10936 10936 10936 10936 10936 10937 10936 10936 10936 10936 10936 10936 10936 10936 10939 10942 10943 10945 10945 10944 10946 10947 10949 10952 10955 10957 10959 10962 10964 10966 10968 10971 10974 10977 10979 10982 10986 10988 10991 10993 10994 10996 10998 10999 11000 11000 11001 11003 11005 11006 11007 11009
10948 10949 10949 10949 10949 10950 10950 10950 10950 10950 10949 10949 10949 10948 10948 10947 10947 10946 10946 10945 10944 10943 10942 10941 10940 10939 10939 10938 10937 10936 10936 10935 10935 10934 10934 10934 10933 10933 10933 10933 10934 10934 10934 10934 10934 10933 10933 10933 10932 10933 10935 10938 10940 10941 10940 10940 10942 10943 10945 10948 10950 10953 10956 10958 10960 10961 10964 10967 10971 10974 10976 10978 10982 10985 10988 10990 10991 10993 10995 10997 10998 10998 10998 10999 11001 11003 11004 11006
10948 10949 10949 10949 10949 10949 10950 10950 10950 10949 10949 10949 10948 10948 10947 10946 10945 10945 10944 10944 10943 10942 10941 10940 10939 10938 10937 10937 10936 10935 10934 10933 10932 10932 10931 10931 10930 10929 10929 10929 10930 10931 10931 10932 10931 10930 10930 10929 10929 10929 10931 10933 10935 10937 10935 10935 10938 10940 10941 10944 10946 10948 10952 10954 10956 10958 10960 10963 10966 10970 10972 10975 10978 10981 10984 10986 10988 10990 10992 10993 10994 10995 10995 10996 10997 10999 11001 11003
10948 10948 10949 10949 10949 10949 10949 10949 10949 10949 10949 10948 10947 10947 10946 10945 10944 10943 10943 10942 10941 10940 10939 10939 10937 10936 10935 10934 10934 10933 10932 10930 10930 10929 10928 10928 10927 10926 10925 10925 10926 10926 10927 10928 10928 10927 10926 10925 10926 10925 10927 10929 10931 10932 10931 10931 10934 10936 10937 10940 10941 10943 10947 10949 10951 10953 10955 10959 10962 10965 10968 10971 10974 10977 10980 10982 10985 10988 10989 10990 10991 10992 10992 10992 10994 10995 10997 10999
10948 10948 10949 10949 10949 10949 10949 10949 10949 10949 10948 10947 10947 10946 10945 10944 10943 10942 10941 10940 10940 10938 10937 10936 10935 10934 10933 10932 10931 10930 10929 10927 10926 10926 10924 10924 10923 10922 10921 10921 10921 10921 10921 10923 10924 10923 10922 10921 10922 10922 10922 10924 10926 10927 10927 10927 10930 10932 10933 10936 10937 10938 10941 10943 10945 10948 10951 10954 10958 10961 10964 10967 10970 10973 10976 10978 10982 10984 10986 10987 10988 10989 10988 10988 10989 10991 10994 10996
10948 10948 10949 10949 10949 10949 10949 10949 10948 10948 10948 10947 10946 10945 10945 10944 10943 10941 10940 10939 10939 10937 10936 10935 10933 10932 10931 10930 10928 10927 10927 10925 10923 10922 10920 10920 10920 10918 10917 10916 10915 10916 10916 10917 10919 10918 10918 10917 10917 10918 10918 10919 10921 10921 10922 10924 10926 10928 10929 10931 10933 10934 10936 10939 10941 10944 10947 10950 10954 10957 10960 10963 10967 10969 10971 10974 10977 10980 10982 10983 10985 10986 10985 10984 10986 10988 10991 10993
10948 10948 10948 10949 10949 10949 10948 10948 10948 10947 10947 10946 10946 10945 10944 10943 10942 10941 10940 10938 10938 10936 10934 10933 10932 10930 10929 10927 10926 10924 10924 10921 10920 10920 10916 10915 10915 10913 10913 10912 10909 10910 10911 10910 10912 10913 10912 10912 10912 10913 10914 10914 10916 10917 10918 10919 10921 10923 10925 10927 10928 10930 10932 10934 10937 10939 10943 10947 10949 10952 10956 10960 10963 10965 10967 10970 10973 10975 10978 10980 10981 10983 10983 10983 10985 10986 10988 10991
10947 10948 10948 10948 10948 10948 10948 10947 10947 10947 10946 10946 10945 10944 10944 10943 10942 10941 10939 10937 10936 10936 10933 10932 10930 10929 10927 10925 10924 10921 10920 10918 10916 10916 10912 10909 10910 10909 10907 10907 10904 10903 10904 10903 10905 10906 10907 10906 10906 10907 10908 10910 10911 10912 10913 10914 10916 10917 10919 10921 10923 10926 10927 10928 10931 10936 10939 10942 10945 10948 10952 10956 10959 10961 10963 10966 10969 10972 10975 10977 10978 10980 10982 10983 10984 10984 10986 10989
10947 10947 10947 10948 10947 10947 10947 10947 10947 10946 10946 10945 10944 10944 10943 10942 10941 10940 10938 10935 10934 10934 10932 10930 10928 10927 10925 10923 10921 10919 10917 10913 10911 10913 10909 10902 10903 10904 10901 10901 10899 10895 10896 10897 10897 10899 10900 10900 10900 10900 10901 10904 10905 10906 10908 10909 10910 10911 10912 10915 10917 10920 10920 10922 10927 10932 10934 10937 10940 10944 10949 10953 10956 10957 10960 10962 10965 10969 10971 10973 10975 10977 10979 10981 10982 10982 10984 10986
10946 10947 10947 10947 10947 10947 10947 10946 10946 10945 10945 10944 10943 10942 10942 10941 10939 10939 10938 10935 10932 10931 10929 10927 10926 10924 10922 10920 10918 10916 10913 10910 10906 10906 10905 10898 10896 10897 10894 10893 10893 10889 10888 10889 10890 10891 10892 10892 10893 10893 10893 10896 10899 10900 10902 10903 10904 10905 10906 10908 10911 10913 10914 10917 10923 10927 10929 10933 10936 10940 10944 10948 10952 10953 10956 10959 10961 10965 10968 10971 10974 10976 10978 10978 10979 10980 10983 10985
10946 10946 10946 10946 10946 10946 10946 10945 10945 10944 10943 10943 10942 10941 10940 10939 10938 10936 10936 10935 10933 10931 10928 10925 10923 10921 10919 10916 10913 10911 10909 10906 10902 10900 10898 10893 10890 10890 10887 10885 10885 10882 10879 10880 10882 10883 10883 10882 10884 10885 10885 10887 10890 10893 10895 10897 10898 10899 10900 10901 10904 10907 10909 10913 10918 10921 10924 10928 10931 10936 10939 10943 10947 10949 10952 10955 10957 10960 10964 10967 10970 10972 10974 10975 10976 10978 10982 10984
10945 10945 10945 10945 10945 10945 10945 10944 10944 10943 10942 10941 10940 10939 10938 10937 10936 10934 10933 10931 10930 10930 10927 10923 10921 10918 10916 10913 10910 10907 10903 10900 10898 10895 10891 10887 10885 10883 10879 10877 10876 10873 10871 10872 10873 10873 10872 10872 10874 10876 10877 10878 10881 10885 10889 10891 10893 10893 10892 10894 10898 10901 10905 10910 10913 10915 10919 10923 10926 10931 10934 10938 10942 10945 10948 10950 10952 10956 10960 10963 10965 10968 10970 10971 10973 10977 10979 10982
10944 10945 10945 10945 10944 10944 10944 10943 10943 10942 10941 10940 10939 10938 10936 10934 10933 10931 10930 10928 10926 10924 10923 10920 10917 10914 10911 10909 10905 10902 10898 10894 10891 10889 10885 10880 10878 10876 10872 10869 10867 10864 10862 10862 10862 10861 10861 10860 10862 10866 10867 10868 10872 10877 10882 10885 10886 10886 10886 10888 10893 10896 10900 10905 10907 10910 10913 10917 10922 10926 10930 10933 10936 10940 10943 10946 10948 10952 10956 10959 10961 10963 10966 10968 10971 10974 10977 10980
10944 10944 10944 10944 10944 10943 10943 10942 10941 10940 10939 10938 10937 10936 10934 10932 10930 10928 10926 10926 10924 10921 10919 10917 10914 10910 10906 10904 10901 10898 10894 10889 10884 10882 10879 10874 10870 10868 10864 10860 10857 10855 10852 10851 10849 10848 10849 10849 10851 10855 10856 10859 10864 10868 10873 10876 10877 10878 10879 10881 10887 10892 10896 10900 10902 10905 10909 10913 10917 10921 10924 10927 10931 10935 10938 10941 10945 10949 10952 10955 10957 10960 10962 10965 10968 10970 10974 10977
10943 10943 10943 10943 10943 10942 10942 10941 10940 10939 10938 10936 10935 10934 10932 10930 10928 10926 10922 10920 10919 10917 10914 10912 10910 10908 10903 10898 10895 10892 10889 10885 10879 10875 10871 10867 10863 10859 10855 10850 10847 10843 10841 10838 10836 10835 10836 10839 10841 10843 10845 10850 10854 10857 10862 10866 10868 10871 10871 10874 10882 10887 10890 10894 10897 10900 10904 10907 10911 10914 10917 10921 10926 10930 10932 10937 10942 10945 10948 10951 10953 10956 10959 10961 10964 10967 10970 10973
10942 10942 10942 10941 10941 10941 10940 10939 10938 10937 10936 10935 10933 10931 10930 10928 10926 10924 10921 10917 10914 10912 10909 10906 10902 10900 10897 10892 10887 10883 10880 10878 10872 10867 10863 10859 10855 10850 10845 10841 10836 10832 10828 10826 10824 10824 10825 10827 10830 10833 10837 10840 10844 10848 10853 10857 10861 10863 10864 10870 10879 10882 10885 10889 10892 10895 10899 10902 10906 10909 10911 10915 10920 10924 10926 10931 10938 10941 10944 10946 10948 10952 10955 10957 10960 10963 10967 10969
10940 10940 10940 10940 10940 10939 10939 10938 10937 10936 10934 10933 10931 10930 10928 10925 10923 10921 10919 10915 10911 10908 10905 10901 10897 10893 10890 10886 10881 10875 10871 10869 10865 10859 10856 10851 10845 10841 10836 10831 10826 10820 10817 10815 10813 10814 10814 10816 10821 10824 10828 10832 10836 10842 10846 10850 10855 10857 10860 10868 10875 10877 10880 10884 10887 10891 10894 10897 10901 10904 10906 10910 10914 10918 10920 10925 10931 10936 10939 10941 10943 10947 10951 10954 10957 10960 10963 10966
10939 10939 10939 10939 10938 10938 10937 10936 10935 10934 10932 10931 10929 10927 10925 10923 10920 10917 10915 10912 10908 10904 10901 10897 10893 10889 10885 10882 10879 10873 10866 10862 10858 10851 10848 10843 10836 10831 10826 10822 10817 10810 10808 10807 10804 10804 10805 10808 10812 10815 10819 10825 10830 10834 10838 10843 10848 10852 10857 10865 10869 10872 10875 10879 10883 10886 10888 10891 10896 10899 10902 10905 10909 10913 10915 10919 10925 10931 10934 10936 10939 10943 10947 10950 10954 10957 10959 10962
10938 10938 10938 10937 10937 10936 10935 10934 10933 10932 10930 10929 10927 10924 10922 10921 10919 10916 10912 10909 10906 10902 10899 10895 10890 10885 10881 10877 10873 10869 10861 10855 10850 10843 10840 10836 10828 10822 10817 10812 10808 10803 10801 10799 10797 10797 10799 10802 10805 10807 10811 10819 10825 10828 10832 10838 10844 10848 10854 10861 10865 10867 10870 10874 10878 10880 10883 10887 10892 10895 10897 10900 10904 10907 10910 10915 10920 10925 10929 10932 10937 10940 10942 10945 10949 10953 10956 10959
10936 10936 10936 10936 10935 10934 10934 10932 10931 10930 10928 10927 10925 10923 10920 10918 10916 10913 10910 10906 10903 10899 10895 10892 10887 10881 10876 10870 10864 10860 10854 10848 10844 10837 10832 10828 10821 10815 10810 10804 10800 10797 10794 10793 10792 10792 10794 10796 10799 10802 10806 10814 10819 10822 10827 10835 10841 10845 10851 10856 10858 10861 10864 10869 10872 10875 10879 10883 10887 10890 10891 10895 10898 10901 10906 10911 10915 10919 10924 10929 10934 10937 10939 10942 10945 10949 10953 10957
10935 10935 10934 10934 10933 10932 10932 10931 10929 10928 10926 10924 10922 10921 10919 10916 10913 10910 10907 10903 10899 10896 10891 10887 10883 10877 10871 10866 10859 10854 10848 10843 10839 10832 10827 10823 10817 10810 10804 10798 10794 10792 10789 10789 10788 10788 10789 10791 10794 10797 10802 10808 10812 10816 10822 10832 10838 10842 10846 10850 10853 10856 10860 10864 10868 10872 10876 10879 10883 10885 10887 10890 10893 10896 10901 10906 10909 10915 10922 10926 10930 10934 10937 10939 10941 10945 10949 10952
10933 10933 10933 10932 10931 10931 10930 10929 10927 10926 10924 10922 10920 10917 10915 10912 10910 10907 10904 10900 10896 10893 10889 10883 10879 10874 10868 10862 10857 10851 10844 10837 10833 10828 10822 10818 10813 10807 10800 10794 10790 10788 10786 10785 10785 10784 10786 10788 10790 10794 10799 10804 10808 10812 10819 10827 10833 10837 10841 10845 10849 10852 10855 10860 10864 10868 10872 10876 10879 10880 10882 10885 10887 10889 10894 10900 10904 10911 10917 10920 10925 10931 10935 10936 10937 10941 10945 10947
10931 10931 10931 10930 10929 10929 10928 10926 10925 10924 10922 10921 10919 10916 10913 10910 10908 10905 10902 10898 10893 10889 10885 10880 10875 10870 10865 10859 10853 10848 10841 10833 10828 10823 10817 10812 10807 10803 10798 10791 10787 10785 10783 10782 10782 10782 10784 10785 10788 10793 10797 10801 10805 10809 10817 10824 10829 10833 10837 10841 10846 10849 10853 10857 10860 10863 10868 10871 10873 10876 10878 10881 10883 10885 10891 10898 10902 10907 10911 10915 10921 10926 10931 10933 10935 10938 10941 10943
10930 10929 10929 10928 10927 10926 10926 10924 10923 10922 10919 10917 10915 10914 10912 10909 10906 10902 10899 10895 10891 10885 10881 10877 10871 10866 10861 10855 10849 10843 10838 10831 10824 10819 10813 10808 10802 10798 10794 10788 10783 10781 10779 10779 10779 10780 10780 10781 10785 10789 10793 10797 10802 10807 10813 10820 10825 10829 10833 10838 10843 10847 10850 10854 10857 10861 10863 10866 10869 10872 10875 10877 10879 10883 10889 10894 10898 10902 10907 10912 10917 10921 10926 10931 10933 10935 10937 10939
10927 10927 10926 10926 10925 10924 10923 10922 10920 10919 10917 10915 10912 10909 10907 10904 10902 10899 10895 10891 10888 10883 10878 10874 10869 10864 10858 10852 10846 10839 10834 10829 10822 10816 10809 10804 10799 10793 10789 10785 10780 10777 10776 10776 10776 10778 10779 10781 10783 10786 10790 10795 10799 10804 10810 10816 10821 10825 10830 10835 10839 10842 10845 10850 10855 10857 10858 10861 10864 10867 10870 10872 10875 10880 10885 10889 10893 10899 10903 10907 10913 10918 10922 10926 10929 10931 10934 10937
10925 10925 10924 10923 10923 10922 10920 10919 10918 10916 10915 10913 10910 10907 10904 10901 10897 10894 10891 10887 10883 10880 10876 10871 10867 10861 10856 10850 10844 10837 10831 10826 10820 10813 10806 10800 10795 10789 10785 10781 10776 10773 10773 10774 10774 10776 10778 10779 10780 10783 10787 10791 10794 10799 10805 10811 10817 10821 10826 10830 10834 10838 10842 10847 10850 10852 10853 10856 10858 10861 10865 10869 10873 10878 10881 10883 10889 10895 10899 10904 10910 10914 10918 10922 10924 10928 10932 10935
10923 10922 10922 10921 10920 10919 10918 10916 10914 10913 10911 10909 10907 10904 10901 10898 10894 10890 10887 10884 10880 10875 10872 10867 10863 10858 10853 10847 10842 10835 10828 10822 10816 10810 10803 10797 10790 10785 10780 10776 10773 10770 10770 10772 10773 10773 10773 10773 10777 10781 10786 10790 10793 10798 10803 10807 10811 10817 10821 10825 10830 10834 10839 10842 10845 10847 10849 10852 10854 10858 10862 10867 10871 10873 10876 10880 10886 10892 10897 10902 10907 10909 10912 10917 10920 10926 10931 10933
10920 10920 10919 10918 10917 10916 10915 10914 10912 10910 10907 10905 10903 10901 10897 10893 10891 10887 10883 10879 10876 10871 10868 10863 10858 10854 10850 10844 10838 10832 10825 10818 10812 10806 10801 10794 10787 10780 10775 10772 10770 10768 10768 10769 10770 10770 10770 10773 10776 10779 10783 10787 10792 10796 10798 10801 10806 10812 10816 10821 10826 10831 10835 10839 10841 10844 10847 10849 10852 10855 10859 10865 10868 10869 10873 10879 10883 10889 10895 10898 10900 10902 10906 10911 10916 10924 10931 10932
10917 10917 10916 10915 10914 10913 10912 10911 10910 10907 10905 10902 10899 10897 10894 10890 10887 10884 10880 10876 10872 10867 10863 10859 10855 10849 10845 10840 10835 10829 10822 10815 10808 10802 10798 10792 10785 10777 10773 10770 10768 10765 10764 10764 10765 10767 10770 10772 10775 10776 10779 10784 10787 10790 10794 10799 10804 10809 10813 10818 10823 10827 10831 10834 10837 10841 10844 10846 10849 10853 10857 10863 10865 10867 10873 10877 10881 10887 10892 10893 10894 10897 10902 10908 10914 10923 10931 10932
10915 10914 10913 10912 10911 10910 10909 10908 10906 10904 10902 10900 10896 10893 10891 10888 10884 10880 10876 10872 10869 10864 10858 10854 10851 10846 10841 10836 10830 10825 10819 10812 10805 10799 10793 10788 10782 10775 10770 10767 10764 10762 10760 10760 10762 10765 10769 10771 10773 10775 10778 10781 10784 10788 10793 10799 10802 10805 10810 10815 10819 10823 10826 10830 10834 10838 10841 10843 10847 10850 10855 10860 10862 10865 10871 10876 10878 10882 10885 10886 10890 10895 10901 10908 10914 10920 10926 10929
10912 10911 10910 10909 10909 10907 10906 10905 10903 10901 10898 10896 10894 10890 10887 10884 10881 10877 10872 10868 10864 10861 10856 10850 10846 10841 10836 10831 10826 10820 10814 10808 10802 10796 10789 10784 10778 10771 10766 10762 10760 10758 10757 10758 10760 10763 10766 10769 10770 10773 10775 10777 10780 10785 10790 10796 10800 10803 10807 10811 10815 10819 10823 10828 10832 10835 10837 10840 10844 10848 10852 10856 10859 10863 10869 10873 10874 10876 10880 10883 10887 10893 10900 10905 10910 10915 10920 10924
10908 10908 10907 10906 10906 10904 10903 10901 10899 10897 10895 10892 10890 10887 10884 10880 10877 10873 10869 10864 10860 10856 10852 10847 10842 10837 10832 10827 10821 10816 10810 10803 10797 10792 10786 10780 10774 10769 10763 10759 10757 10755 10755 10756 10757 10760 10764 10766 10768 10770 10773 10776 10780 10784 10788 10794 10800 10805 10808 10811 10814 10817 10821 10826 10829 10832 10835 10838 10841 10845 10849 10852 10856 10861 10867 10870 10870 10872 10877 10882 10886 10892 10896 10900 10904 10909 10911 10913
10905 10905 10904 10903 10902 10901 10899 10898 10896 10894 10891 10889 10886 10883 10880 10877 10873 10869 10865 10861 10856 10851 10847 10843 10838 10833 10828 10823 10817 10811 10805 10799 10793 10787 10782 10777 10771 10765 10760 10756 10754 10752 10752 10753 10756 10759 10762 10765 10767 10770 10774 10777 10781 10785 10789 10795 10799 10803 10807 10810 10812 10815 10819 10824 10827 10830 10834 10837 10840 10843 10846 10850 10855 10859 10864 10866 10867 10872 10877 10881 10885 10888 10891 10894 10900 10904 10904 10906
10902 10901 10900 10899 10899 10897 10896 10894 10892 10890 10888 10885 10882 10879 10876 10873 10869 10865 10861 10857 10852 10847 10842 10838 10833 10828 10823 10818 10813 10807 10801 10795 10788 10783 10777 10772 10767 10761 10756 10753 10751 10750 10750 10751 10754 10757 10759 10763 10767 10769 10772 10775 10779 10783 10787 10792 10796 10799 10803 10805 10808 10810 10814 10818 10823 10828 10831 10834 10837 10840 10844 10848 10852 10856 10860 10863 10867 10872 10875 10876 10878 10879 10882 10889 10894 10898 10901 10904
10898 10898 10897 10896 10895 10894 10893 10891 10889 10887 10884 10882 10879 10876 10873 10869 10865 10862 10858 10853 10849 10844 10838 10833 10828 10824 10819 10813 10808 10802 10797 10790 10784 10779 10774 10768 10762 10757 10753 10749 10747 10747 10747 10748 10751 10753 10756 10761 10765 10768 10771 10773 10776 10779 10782 10786 10789 10793 10797 10801 10803 10805 10809 10813 10817 10821 10824 10828 10833 10837 10840 10844 10850 10854 10856 10860 10866 10869 10868 10868 10871 10874 10880 10887 10891 10894 10897 10902
10895 10894 10893 10893 10892 10890 10889 10887 10885 10883 10881 10878 10875 10872 10869 10865 10862 10858 10854 10849 10845 10840 10835 10829 10824 10819 10814 10809 10803 10798 10792 10786 10780 10774 10770 10764 10758 10753 10749 10745 10744 10744 10744 10745 10747 10750 10754 10758 10762 10766 10769 10770 10773 10776 10780 10783 10787 10791 10796 10799 10801 10804 10808 10810 10811 10813 10818 10824 10828 10832 10836 10842 10849 10852 10854 10859 10864 10864 10862 10865 10871 10876 10881 10885 10888 10892 10896 10900